EW5024 Weather Reports


time (UTC)temp
C
wind
direction
speed
KPH
gust
KPH
rain 1hr
cm
rain 24hr
cm
rain mn
cm
humidity
%
barometer
mb
20260502231526 14 184 1.6 4.8 0.00 0.00 0.00 57 1022.0
20260502230029 15 22 0.0 4.8 0.00 0.00 0.00 56 1022.0
20260502224523 15 189 1.6 6.4 0.00 0.00 0.00 55 1022.0
20260502223019 15 211 1.6 6.4 0.00 0.00 0.00 53 1022.0
20260502221516 16 105 4.8 11.3 0.00 0.00 0.00 50 1022.0
20260502220013 16 216 1.6 4.8 0.00 0.00 0.00 51 1022.0
20260502214513 16 218 4.8 8.0 0.00 0.00 0.00 49 1021.9
20260502213012 16 202 3.2 8.0 0.00 0.00 0.00 48 1021.8
20260502211512 17 229 3.2 6.4 0.00 0.00 0.00 46 1021.7
20260502210011 18 207 1.6 19.3 0.00 0.00 0.00 44 1021.7
20260502204511 18 87 8.0 19.3 0.00 0.00 0.00 43 1021.6
20260502203010 18 120 4.8 14.5 0.00 0.00 0.00 42 1021.5
20260502201510 18 166 3.2 14.5 0.00 0.00 0.00 40 1021.4
20260502200009 20 167 9.7 22.5 0.00 0.00 0.00 35 1021.4
20260502194509 20 189 12.9 25.7 0.00 0.00 0.00 35 1021.2
20260502193008 20 196 16.1 27.4 0.00 0.00 0.00 34 1020.9
20260502191507 20 224 16.1 27.4 0.00 0.00 0.00 34 1020.7
20260502190012 20 140 12.9 30.6 0.00 0.00 0.00 34 1020.5
20260502184518 21 182 16.1 33.8 0.00 0.00 0.00 34 1020.4
20260502183014 21 196 16.1 33.8 0.00 0.00 0.00 34 1020.1
20260502181505 21 208 12.9 38.6 0.00 0.00 0.00 34 1019.9
20260502163105 21 184 12.9 29.0 0.00 0.00 0.00 34 1019.5
20260502161623 22 145 12.9 32.2 0.00 0.00 0.00 34 1019.6
20260502151604 23 200 16.1 30.6 0.00 0.00 0.00 32 1020.0
20260502123034 24 216 8.0 17.7 0.00 0.00 0.00 30 1022.3
20260502121525 23 194 12.9 20.9 0.00 0.00 0.00 31 1022.7
20260502114520 23 123 16.1 22.5 0.00 0.00 0.00 31 1023.2
20260502113016 22 180 8.0 16.1 0.00 0.00 0.00 34 1023.4
20260502111518 22 286 0.0 6.4 0.00 0.00 0.00 39 1023.8
20260502110013 21 221 4.8 14.5 0.00 0.00 0.00 41 1024.2
20260502104504 20 281 4.8 11.3 0.00 0.00 0.00 43 1024.7
20260502103103 19 196 3.2 11.3 0.00 0.00 0.00 45 1025.0
20260502101557 19 267 4.8 12.9 0.00 0.00 0.00 45 1025.3
20260502071520 12 338 4.8 8.0 0.00 0.00 0.00 64 1028.3
20260502070019 12 336 3.2 9.7 0.00 0.00 0.00 65 1028.5
20260502064519 11 28 3.2 8.0 0.00 0.00 0.00 68 1028.6
20260502063026 11 333 4.8 8.0 0.00 0.00 0.00 72 1028.6
20260502061518 10 329 6.4 9.7 0.00 0.00 0.00 73 1028.8
20260502060017 10 348 4.8 8.0 0.00 0.00 0.00 76 1029.0
20260502054517 9 331 1.6 4.8 0.00 0.00 0.00 78 1029.1
20260502053015 8 339 1.6 3.2 0.00 0.00 0.00 79 1029.1
20260502051514 7 339 0.0 0.0 0.00 0.00 0.00 80 1029.1
20260502050014 7 339 0.0 0.0 0.00 0.00 0.00 80 1029.0
20260502044512 7 339 0.0 0.0 0.00 0.00 0.00 79 1029.0
20260502043011 7 339 0.0 0.0 0.00 0.00 0.00 79 1028.9
20260502041510 7 339 0.0 0.0 0.00 0.00 0.00 79 1028.8
20260502040007 7 342 0.0 1.6 0.00 0.00 0.00 78 1028.7
20260502034508 7 342 0.0 0.0 0.00 0.00 0.00 77 1028.5
20260502033003 8 342 0.0 0.0 0.00 0.00 0.00 76 1028.5
20260502031502 8 341 0.0 0.0 0.00 0.00 0.00 77 1028.3
20260502030000 7 340 0.0 0.0 0.00 0.00 0.00 76 1028.4
20260502024559 8 340 0.0 0.0 0.00 0.00 0.00 76 1028.3
20260502023059 8 340 1.6 3.2 0.00 0.00 0.00 76 1028.3
20260502021557 8 350 0.0 0.0 0.00 0.00 0.00 75 1028.3
20260502020059 8 350 0.0 3.2 0.00 0.00 0.00 74 1028.2
20260502014553 8 355 0.0 0.0 0.00 0.00 0.00 72 1028.2
20260502013050 9 355 1.6 4.8 0.00 0.00 0.00 72 1028.1
20260502011550 10 325 3.2 6.4 0.00 0.00 0.00 69 1028.1
20260502010044 10 5 1.6 4.8 0.00 0.00 0.00 70 1028.1
20260502004542 10 355 0.0 4.8 0.00 0.00 0.00 69 1028.2
20260502003039 11 5 3.2 6.4 0.00 0.00 0.00 63 1028.1
20260502001541 11 180 3.2 9.7 0.00 0.00 0.00 63 1028.2
20260502000038 10 78 0.0 0.0 0.00 0.00 0.00 68 1028.2
20260501234535 10 298 0.0 4.8 0.00 0.00 0.00 66 1028.3
20260501233032 11 355 1.6 4.8 0.00 0.00 0.00 62 1028.1